| time (UTC) | temp F | wind direction | speed knots | gust knots | rain 1hr in | rain 24hr in | rain mn in | humidity % | barometer mb |
| 20260503211003 | 64 | 218 | 8.7 | 18.2 | 0.00 | 0.00 | 0.00 | 59 | 1012.5 |
| 20260503210503 | 65 | 218 | 8.7 | 14.8 | 0.00 | 0.00 | 0.00 | 60 | 1012.5 |
| 20260503210003 | 65 | 221 | 7.8 | 14.8 | 0.00 | 0.00 | 0.00 | 59 | 1012.5 |
| 20260503205503 | 65 | 212 | 7.8 | 13.0 | 0.00 | 0.00 | 0.00 | 61 | 1012.4 |
| 20260503205003 | 64 | 221 | 7.8 | 13.0 | 0.00 | 0.00 | 0.00 | 61 | 1012.3 |
| 20260503204503 | 64 | 219 | 8.7 | 13.0 | 0.00 | 0.00 | 0.00 | 61 | 1012.4 |
| 20260503204024 | 64 | 209 | 8.7 | 13.9 | 0.00 | 0.00 | 0.00 | 62 | 1012.4 |
| 20260503203503 | 64 | 220 | 7.0 | 15.6 | 0.00 | 0.00 | 0.00 | 61 | 1012.5 |
| 20260503203003 | 64 | 228 | 7.0 | 15.6 | 0.00 | 0.00 | 0.00 | 62 | 1012.6 |
| 20260503202503 | 64 | 224 | 8.7 | 15.6 | 0.00 | 0.00 | 0.00 | 63 | 1012.6 |
| 20260503202024 | 63 | 227 | 8.7 | 15.6 | 0.00 | 0.00 | 0.00 | 62 | 1012.5 |
| 20260503201503 | 63 | 239 | 7.8 | 15.6 | 0.00 | 0.00 | 0.00 | 63 | 1012.7 |
| 20260503201003 | 63 | 250 | 8.7 | 15.6 | 0.00 | 0.00 | 0.00 | 62 | 1012.7 |
| 20260503200503 | 63 | 250 | 8.7 | 15.6 | 0.00 | 0.00 | 0.00 | 62 | 1012.5 |
| 20260503200003 | 64 | 249 | 7.8 | 15.6 | 0.00 | 0.00 | 0.00 | 60 | 1012.6 |
| 20260503195503 | 64 | 267 | 7.0 | 13.0 | 0.00 | 0.00 | 0.00 | 61 | 1012.7 |
| 20260503195003 | 64 | 245 | 7.0 | 12.2 | 0.00 | 0.00 | 0.00 | 61 | 1012.7 |
| 20260503194525 | 64 | 235 | 7.8 | 12.2 | 0.00 | 0.00 | 0.00 | 60 | 1012.7 |
| 20260503194003 | 64 | 236 | 7.8 | 13.9 | 0.00 | 0.00 | 0.00 | 59 | 1012.7 |
| 20260503193503 | 64 | 236 | 7.8 | 13.9 | 0.00 | 0.00 | 0.00 | 61 | 1012.8 |
| 20260503193003 | 64 | 244 | 8.7 | 13.0 | 0.00 | 0.00 | 0.00 | 61 | 1012.8 |
| 20260503192504 | 64 | 243 | 8.7 | 14.8 | 0.00 | 0.00 | 0.00 | 62 | 1012.7 |
| 20260503192003 | 64 | 235 | 7.0 | 14.8 | 0.00 | 0.00 | 0.00 | 62 | 1012.6 |
| 20260503191503 | 63 | 239 | 6.1 | 10.4 | 0.00 | 0.00 | 0.00 | 62 | 1012.8 |
| 20260503191003 | 63 | 251 | 7.0 | 11.3 | 0.00 | 0.00 | 0.00 | 63 | 1012.8 |
| 20260503190503 | 63 | 250 | 7.0 | 11.3 | 0.00 | 0.00 | 0.00 | 62 | 1012.7 |
| 20260503190003 | 63 | 244 | 7.0 | 13.9 | 0.00 | 0.00 | 0.00 | 63 | 1012.7 |
| 20260503185503 | 63 | 247 | 7.0 | 13.9 | 0.00 | 0.00 | 0.00 | 63 | 1012.8 |
| 20260503185003 | 63 | 240 | 7.0 | 12.2 | 0.00 | 0.00 | 0.00 | 63 | 1012.8 |
| 20260503184503 | 63 | 218 | 7.0 | 13.0 | 0.00 | 0.00 | 0.00 | 65 | 1012.9 |
| 20260503184003 | 63 | 223 | 6.1 | 13.0 | 0.00 | 0.00 | 0.00 | 65 | 1012.8 |
| 20260503183503 | 62 | 224 | 6.1 | 12.2 | 0.00 | 0.00 | 0.00 | 64 | 1012.8 |
| 20260503183003 | 62 | 231 | 7.0 | 13.0 | 0.00 | 0.00 | 0.00 | 66 | 1012.8 |
| 20260503182503 | 62 | 235 | 7.0 | 13.0 | 0.00 | 0.00 | 0.00 | 67 | 1012.8 |
| 20260503182024 | 63 | 221 | 6.1 | 12.2 | 0.00 | 0.00 | 0.00 | 67 | 1012.7 |
| 20260503181504 | 62 | 232 | 5.2 | 10.4 | 0.00 | 0.00 | 0.00 | 68 | 1012.7 |
| 20260503181004 | 62 | 250 | 5.2 | 9.6 | 0.00 | 0.00 | 0.00 | 68 | 1012.7 |
| 20260503180503 | 61 | 255 | 4.3 | 7.8 | 0.00 | 0.00 | 0.00 | 71 | 1012.7 |
| 20260503180004 | 61 | 248 | 5.2 | 9.6 | 0.00 | 0.00 | 0.00 | 71 | 1012.7 |
| 20260503175503 | 60 | 236 | 7.0 | 12.2 | 0.00 | 0.00 | 0.00 | 70 | 1012.7 |
| 20260503175003 | 60 | 232 | 6.1 | 12.2 | 0.00 | 0.00 | 0.00 | 71 | 1012.8 |
| 20260503174503 | 60 | 245 | 5.2 | 10.4 | 0.00 | 0.00 | 0.00 | 74 | 1012.7 |
| 20260503174003 | 59 | 253 | 6.1 | 10.4 | 0.00 | 0.00 | 0.00 | 75 | 1012.7 |
| 20260503173503 | 59 | 253 | 6.1 | 10.4 | 0.00 | 0.00 | 0.00 | 75 | 1012.7 |
| 20260503173003 | 58 | 250 | 6.1 | 10.4 | 0.00 | 0.00 | 0.00 | 77 | 1012.6 |
| 20260503172504 | 58 | 242 | 6.1 | 10.4 | 0.00 | 0.00 | 0.00 | 77 | 1012.7 |
| 20260503172024 | 58 | 241 | 5.2 | 9.6 | 0.00 | 0.00 | 0.00 | 79 | 1012.7 |
| 20260503171524 | 57 | 250 | 4.3 | 8.7 | 0.00 | 0.00 | 0.00 | 80 | 1012.7 |
| 20260503171003 | 57 | 232 | 4.3 | 7.8 | 0.00 | 0.00 | 0.00 | 81 | 1012.7 |
| 20260503170503 | 57 | 223 | 4.3 | 9.6 | 0.00 | 0.00 | 0.00 | 82 | 1012.8 |
| 20260503151003 | 55 | 251 | 0.9 | 4.3 | 0.00 | 0.00 | 0.00 | 86 | 1012.3 |
| 20260503150503 | 55 | 237 | 0.9 | 4.3 | 0.00 | 0.00 | 0.00 | 86 | 1012.3 |
| 20260503131003 | 55 | 251 | 0.9 | 3.5 | 0.00 | 0.00 | 0.00 | 81 | 1011.0 |
| 20260503130503 | 55 | 249 | 0.9 | 3.5 | 0.00 | 0.00 | 0.00 | 81 | 1010.8 |
| 20260503110503 | 55 | 296 | 0.0 | 1.7 | 0.00 | 0.00 | 0.00 | 82 | 1011.0 |
| 20260503090503 | 55 | 291 | 2.6 | 5.2 | 0.00 | 0.00 | 0.00 | 81 | 1011.2 |
| 20260503081503 | 55 | 290 | 2.6 | 5.2 | 0.00 | 0.00 | 0.00 | 81 | 1011.6 |
| 20260503081003 | 55 | 285 | 1.7 | 5.2 | 0.00 | 0.00 | 0.00 | 81 | 1011.8 |
| 20260503080503 | 55 | 280 | 1.7 | 4.3 | 0.00 | 0.00 | 0.00 | 81 | 1011.9 |
| 20260503072524 | 55 | 0 | 0.0 | 0.0 | 0.00 | 0.00 | 0.00 | 81 | 1011.8 |
| 20260503072003 | 55 | 0 | 0.0 | 0.0 | 0.00 | 0.00 | 0.00 | 81 | 1011.8 |
| 20260503071524 | 55 | 0 | 0.0 | 0.0 | 0.00 | 0.00 | 0.00 | 81 | 1011.8 |
| 20260503071003 | 55 | 240 | 0.0 | 1.7 | 0.00 | 0.00 | 0.00 | 81 | 1011.9 |
| 20260503070503 | 55 | 237 | 0.9 | 2.6 | 0.00 | 0.00 | 0.00 | 81 | 1011.9 |
| 20260503055003 | 55 | 296 | 2.6 | 7.0 | 0.00 | 0.00 | 0.00 | 81 | 1012.2 |
| 20260503054503 | 55 | 293 | 2.6 | 5.2 | 0.00 | 0.00 | 0.00 | 81 | 1012.1 |
| 20260503054003 | 55 | 289 | 2.6 | 6.1 | 0.00 | 0.00 | 0.00 | 81 | 1012.1 |
| 20260503053503 | 55 | 296 | 2.6 | 7.0 | 0.00 | 0.00 | 0.00 | 81 | 1012.2 |
| 20260503053024 | 55 | 304 | 2.6 | 7.0 | 0.00 | 0.00 | 0.00 | 80 | 1012.3 |
| 20260503052503 | 55 | 297 | 3.5 | 7.0 | 0.00 | 0.00 | 0.00 | 80 | 1012.4 |
| 20260503052003 | 55 | 303 | 3.5 | 7.0 | 0.00 | 0.00 | 0.00 | 80 | 1012.3 |
| 20260503051524 | 55 | 302 | 3.5 | 6.1 | 0.00 | 0.00 | 0.00 | 80 | 1012.3 |
| 20260503051003 | 55 | 296 | 3.5 | 7.8 | 0.00 | 0.00 | 0.00 | 80 | 1012.3 |
| 20260503050503 | 55 | 286 | 4.3 | 11.3 | 0.00 | 0.00 | 0.00 | 80 | 1012.3 |
| 20260503050003 | 55 | 287 | 5.2 | 11.3 | 0.00 | 0.00 | 0.00 | 80 | 1012.2 |
| 20260503045503 | 55 | 294 | 5.2 | 7.8 | 0.00 | 0.00 | 0.00 | 80 | 1012.3 |
| 20260503045003 | 55 | 293 | 3.5 | 7.8 | 0.00 | 0.00 | 0.00 | 80 | 1012.2 |
| 20260503044503 | 55 | 286 | 4.3 | 9.6 | 0.00 | 0.00 | 0.00 | 80 | 1012.3 |
| 20260503044003 | 55 | 282 | 4.3 | 9.6 | 0.00 | 0.00 | 0.00 | 80 | 1012.3 |
| 20260503043503 | 55 | 279 | 2.6 | 7.0 | 0.00 | 0.00 | 0.00 | 80 | 1012.2 |
| 20260503043024 | 55 | 283 | 2.6 | 6.1 | 0.00 | 0.00 | 0.00 | 80 | 1012.3 |
| 20260503042503 | 55 | 286 | 2.6 | 6.1 | 0.00 | 0.00 | 0.00 | 80 | 1012.2 |
| 20260503042003 | 55 | 285 | 2.6 | 6.1 | 0.00 | 0.00 | 0.00 | 80 | 1012.1 |
| 20260503041524 | 55 | 286 | 2.6 | 7.8 | 0.00 | 0.00 | 0.00 | 80 | 1012.2 |
| 20260503041003 | 56 | 285 | 3.5 | 7.8 | 0.00 | 0.00 | 0.00 | 80 | 1012.1 |
| 20260503040503 | 56 | 281 | 3.5 | 7.8 | 0.00 | 0.00 | 0.00 | 80 | 1012.0 |
| 20260503040003 | 56 | 287 | 3.5 | 7.8 | 0.00 | 0.00 | 0.00 | 80 | 1012.1 |
| 20260503035503 | 56 | 285 | 4.3 | 9.6 | 0.00 | 0.00 | 0.00 | 80 | 1012.0 |
| 20260503035024 | 56 | 275 | 3.5 | 9.6 | 0.00 | 0.00 | 0.00 | 80 | 1012.1 |
| 20260503034503 | 56 | 273 | 3.5 | 6.1 | 0.00 | 0.00 | 0.00 | 80 | 1012.1 |
| 20260503034003 | 56 | 276 | 3.5 | 6.1 | 0.00 | 0.00 | 0.00 | 79 | 1012.0 |
| 20260503033503 | 56 | 280 | 3.5 | 8.7 | 0.00 | 0.00 | 0.00 | 79 | 1012.0 |
| 20260503033003 | 56 | 278 | 3.5 | 8.7 | 0.00 | 0.00 | 0.00 | 79 | 1012.0 |
| 20260503032524 | 56 | 269 | 3.5 | 7.0 | 0.00 | 0.00 | 0.00 | 79 | 1011.8 |
| 20260503032024 | 56 | 275 | 3.5 | 7.8 | 0.00 | 0.00 | 0.00 | 79 | 1011.8 |
| 20260503031503 | 56 | 275 | 3.5 | 7.8 | 0.00 | 0.00 | 0.00 | 79 | 1011.6 |
| 20260503031003 | 56 | 279 | 4.3 | 7.8 | 0.00 | 0.00 | 0.00 | 79 | 1011.6 |
| 20260503030503 | 56 | 278 | 4.3 | 10.4 | 0.00 | 0.00 | 0.00 | 78 | 1011.5 |
| 20260503030003 | 56 | 271 | 5.2 | 10.4 | 0.00 | 0.00 | 0.00 | 78 | 1011.4 |
| 20260503025503 | 56 | 274 | 5.2 | 11.3 | 0.00 | 0.00 | 0.00 | 78 | 1011.3 |
| 20260503025024 | 56 | 281 | 5.2 | 11.3 | 0.00 | 0.00 | 0.00 | 78 | 1011.3 |
| 20260503024503 | 56 | 275 | 6.1 | 11.3 | 0.00 | 0.00 | 0.00 | 77 | 1011.2 |
| 20260503024003 | 56 | 270 | 5.2 | 11.3 | 0.00 | 0.00 | 0.00 | 77 | 1011.2 |
| 20260503023503 | 56 | 268 | 5.2 | 10.4 | 0.00 | 0.00 | 0.00 | 77 | 1011.2 |
| 20260503023003 | 56 | 268 | 5.2 | 10.4 | 0.00 | 0.00 | 0.00 | 77 | 1011.1 |
| 20260503022503 | 56 | 265 | 5.2 | 12.2 | 0.00 | 0.00 | 0.00 | 76 | 1011.1 |
| 20260503022024 | 56 | 265 | 6.1 | 12.2 | 0.00 | 0.00 | 0.00 | 76 | 1011.0 |
| 20260503021503 | 57 | 268 | 6.1 | 12.2 | 0.00 | 0.00 | 0.00 | 76 | 1011.2 |
| 20260503021003 | 57 | 268 | 6.1 | 12.2 | 0.00 | 0.00 | 0.00 | 76 | 1011.2 |
| 20260503020503 | 57 | 268 | 6.1 | 10.4 | 0.00 | 0.00 | 0.00 | 76 | 1011.3 |
| 20260503020003 | 57 | 268 | 6.1 | 11.3 | 0.00 | 0.00 | 0.00 | 76 | 1011.3 |
| 20260503015503 | 57 | 271 | 5.2 | 13.9 | 0.00 | 0.00 | 0.00 | 75 | 1011.4 |
| 20260503015003 | 57 | 266 | 6.1 | 13.9 | 0.00 | 0.00 | 0.00 | 75 | 1011.4 |
| 20260503014503 | 57 | 264 | 7.8 | 13.9 | 0.00 | 0.00 | 0.00 | 75 | 1011.4 |
| 20260503014003 | 57 | 263 | 8.7 | 13.9 | 0.00 | 0.00 | 0.00 | 74 | 1011.4 |
| 20260503013503 | 58 | 266 | 7.8 | 13.9 | 0.00 | 0.00 | 0.00 | 74 | 1011.4 |
| 20260503013003 | 58 | 268 | 7.0 | 14.8 | 0.00 | 0.00 | 0.00 | 74 | 1011.4 |
| 20260503012503 | 58 | 278 | 7.0 | 14.8 | 0.00 | 0.00 | 0.00 | 73 | 1011.4 |
| 20260503012003 | 58 | 294 | 6.1 | 12.2 | 0.00 | 0.00 | 0.00 | 74 | 1011.4 |
| 20260503011503 | 58 | 289 | 7.0 | 11.3 | 0.00 | 0.00 | 0.00 | 73 | 1011.6 |
| 20260503011003 | 58 | 286 | 7.0 | 11.3 | 0.00 | 0.00 | 0.00 | 72 | 1011.6 |
| 20260503010525 | 59 | 284 | 6.1 | 11.3 | 0.00 | 0.00 | 0.00 | 72 | 1011.5 |
| 20260503010003 | 59 | 275 | 7.0 | 11.3 | 0.00 | 0.00 | 0.00 | 72 | 1011.6 |
| 20260503005524 | 59 | 273 | 7.8 | 13.9 | 0.00 | 0.00 | 0.00 | 72 | 1011.4 |
| 20260503005003 | 59 | 290 | 7.0 | 13.9 | 0.00 | 0.00 | 0.00 | 72 | 1011.6 |
| 20260503004503 | 59 | 301 | 6.1 | 12.2 | 0.00 | 0.00 | 0.00 | 72 | 1011.6 |
| 20260503004003 | 59 | 296 | 7.0 | 13.0 | 0.00 | 0.00 | 0.00 | 72 | 1011.6 |
| 20260503003503 | 59 | 291 | 7.0 | 13.0 | 0.00 | 0.00 | 0.00 | 71 | 1011.6 |
| 20260503003024 | 60 | 294 | 7.0 | 13.9 | 0.00 | 0.00 | 0.00 | 71 | 1011.7 |
| 20260503002503 | 60 | 303 | 7.0 | 13.9 | 0.00 | 0.00 | 0.00 | 70 | 1011.6 |
| 20260503002003 | 60 | 301 | 6.1 | 11.3 | 0.00 | 0.00 | 0.00 | 70 | 1011.6 |
| 20260503001503 | 60 | 288 | 6.1 | 12.2 | 0.00 | 0.00 | 0.00 | 70 | 1011.7 |
| 20260503001003 | 60 | 271 | 7.0 | 12.2 | 0.00 | 0.00 | 0.00 | 71 | 1011.7 |
| 20260503000524 | 60 | 264 | 8.7 | 13.9 | 0.00 | 0.00 | 0.00 | 70 | 1011.6 |
| 20260503000003 | 60 | 272 | 8.7 | 13.9 | 0.00 | 0.00 | 0.00 | 70 | 1011.7 |
| 20260502235503 | 60 | 269 | 8.7 | 14.8 | 0.00 | 0.00 | 0.00 | 69 | 1011.7 |
| 20260502235003 | 61 | 262 | 8.7 | 14.8 | 0.00 | 0.00 | 0.00 | 68 | 1011.7 |
| 20260502234503 | 61 | 263 | 7.8 | 14.8 | 0.00 | 0.00 | 0.00 | 69 | 1011.7 |
| 20260502234003 | 61 | 258 | 7.8 | 14.8 | 0.00 | 0.00 | 0.00 | 68 | 1011.7 |
| 20260502233503 | 61 | 258 | 8.7 | 18.2 | 0.00 | 0.00 | 0.00 | 69 | 1011.8 |
| 20260502233003 | 60 | 277 | 7.8 | 18.2 | 0.00 | 0.00 | 0.00 | 70 | 1011.8 |
| 20260502232503 | 61 | 298 | 7.0 | 12.2 | 0.00 | 0.00 | 0.00 | 70 | 1011.9 |
| 20260502232003 | 61 | 288 | 7.0 | 13.0 | 0.00 | 0.00 | 0.00 | 70 | 1011.9 |
| 20260502231524 | 61 | 285 | 7.0 | 13.9 | 0.00 | 0.00 | 0.00 | 70 | 1012.0 |
| 20260502231024 | 61 | 280 | 7.8 | 13.9 | 0.00 | 0.00 | 0.00 | 70 | 1012.0 |
| 20260502230503 | 62 | 269 | 7.8 | 13.9 | 0.00 | 0.00 | 0.00 | 69 | 1012.1 |
| 20260502230003 | 62 | 262 | 7.8 | 13.9 | 0.00 | 0.00 | 0.00 | 68 | 1012.1 |
| 20260502225503 | 62 | 254 | 7.8 | 13.9 | 0.00 | 0.00 | 0.00 | 67 | 1012.3 |
| 20260502225003 | 62 | 260 | 7.0 | 13.0 | 0.00 | 0.00 | 0.00 | 68 | 1012.3 |
| 20260502224503 | 62 | 266 | 7.0 | 13.0 | 0.00 | 0.00 | 0.00 | 68 | 1012.4 |
| 20260502224003 | 62 | 265 | 7.8 | 13.0 | 0.00 | 0.00 | 0.00 | 68 | 1012.5 |
| 20260502223524 | 62 | 261 | 7.8 | 14.8 | 0.00 | 0.00 | 0.00 | 68 | 1012.5 |
| 20260502223003 | 62 | 257 | 7.8 | 14.8 | 0.00 | 0.00 | 0.00 | 68 | 1012.5 |
| 20260502222503 | 61 | 261 | 7.8 | 13.9 | 0.00 | 0.00 | 0.00 | 70 | 1012.6 |
| 20260502222003 | 61 | 269 | 7.8 | 14.8 | 0.00 | 0.00 | 0.00 | 71 | 1012.7 |
| 20260502221503 | 60 | 273 | 7.8 | 15.6 | 0.00 | 0.00 | 0.00 | 72 | 1012.8 |
| 20260502221003 | 60 | 271 | 7.8 | 15.6 | 0.00 | 0.00 | 0.00 | 72 | 1012.9 |
| 20260502220503 | 61 | 267 | 7.8 | 15.6 | 0.00 | 0.00 | 0.00 | 71 | 1012.9 |
| 20260502220003 | 61 | 263 | 7.8 | 15.6 | 0.00 | 0.00 | 0.00 | 71 | 1012.9 |
| 20260502215503 | 61 | 261 | 7.8 | 14.8 | 0.00 | 0.00 | 0.00 | 71 | 1013.0 |
| 20260502215003 | 61 | 264 | 8.7 | 14.8 | 0.00 | 0.00 | 0.00 | 70 | 1012.9 |
| 20260502214503 | 62 | 263 | 7.8 | 13.9 | 0.00 | 0.00 | 0.00 | 69 | 1013.0 |
| 20260502214003 | 62 | 256 | 7.0 | 13.0 | 0.00 | 0.00 | 0.00 | 70 | 1013.1 |
| 20260502213503 | 61 | 259 | 7.8 | 14.8 | 0.00 | 0.00 | 0.00 | 71 | 1013.1 |
| 20260502213024 | 61 | 263 | 8.7 | 14.8 | 0.00 | 0.00 | 0.00 | 70 | 1013.2 |
| 20260502212503 | 60 | 263 | 8.7 | 13.9 | 0.00 | 0.00 | 0.00 | 71 | 1013.1 |
| 20260502212004 | 60 | 260 | 7.8 | 12.2 | 0.00 | 0.00 | 0.00 | 72 | 1013.2 |
| 20260502211503 | 60 | 263 | 7.0 | 12.2 | 0.00 | 0.00 | 0.00 | 71 | 1013.2 |